www.pogodaiklimat.ru

Погода и климат >> Архив погоды >> Бразилия >> Arraial Do Cabo


ПОГОДА в Arraial Do Cabo

  • Прогноз погоды в Arraial Do Cabo
  • Монитор погоды в Arraial Do Cabo
  • Климат города

АРХИВ ПОГОДЫ в Arraial Do Cabo

Время (UTC), дата Ветер
(напр.,м/с)
 
Видим.   Явления Облачность Т
(С)
Тd
(С)
f
(%)
Тe
(С)
Тes
(С)
Комфортность P
(гПа)
Po
(гПа)
Тmin
(С)
Tmax
(С)
R
(мм)
R24
(мм)
S
(см)
22 13.11 СВ 6
{8}
н/о н/о +23.9 +20 +20 1014.3 1013.9
23 13.11 В 6
{8}
н/о н/о +23.9 +20 +20 1015.1 1014.7
00 14.11 В 6
{9}
н/о н/о +23.8 +20 +20 1015.8 1015.4
01 14.11 В 6
{8}
н/о н/о +23.8 +20 +20 1015.7 1015.3
02 14.11 СВ 7
{9}
н/о н/о +23.7 +20 +20 1014.9 1014.5
03 14.11 В 6
{9}
н/о н/о +23.6 +20 +20 1014.3 1013.9
04 14.11 СВ 5
{8}
н/о н/о +23.3 +19 +19 1013.1 1012.7
05 14.11 СВ 5
{8}
н/о н/о +23.3 +19 +19 1012.3 1011.9
06 14.11 СВ 4
{10}
н/о н/о +23.1 +19 +19 1012.2 1011.8
07 14.11 СВ 5
{8}
н/о н/о +23.1 +19 +19 1012.4 1012.0
08 14.11 СВ 5
{8}
н/о н/о +23.1 +19 +19 1012.5 1012.1
09 14.11 СВ 4
{8}
н/о н/о +23.5 +20 +20 1012.7 1012.3
10 14.11 СВ 4
{8}
н/о н/о +24.3 +20 +20 1012.9 1012.5
11 14.11 СВ 5
{7}
н/о н/о +24.9 +21 +21 комфорт 1012.7 1012.3
12 14.11 СВ 4
{7}
н/о н/о +25.6 +21 +21 комфорт 1012.4 1012.0
13 14.11 СВ 5
{7}
н/о н/о +26.1 +22 +22 комфорт 1012.1 1011.7
15 14.11 СВ 5
{7}
н/о н/о +26.9 +22 +22 комфорт 1010.7 1010.3
17 14.11 В 4
{8}
н/о н/о +26.8 +22 +22 комфорт 1009.3 1008.9
16 14.11 В 5
{7}
н/о н/о +27.1 +22 +22 комфорт 1009.8 1009.4
18 14.11 В 5
{8}
н/о н/о +26.1 +22 +22 комфорт 1008.7 1008.3
19 14.11 В 6
{9}
н/о н/о +25.7 +21 +21 комфорт 1008.5 1008.1
20 14.11 В 6
{10}
н/о н/о +25.0 +21 +21 комфорт 1008.7 1008.3
21 14.11 В 5
{9}
н/о н/о +24.2 +20 +20 1009.4 1009.0
23 14.11 В 4
{7}
н/о н/о +23.8 +20 +20 1010.6 1010.2
22 14.11 В 5
{8}
н/о н/о +23.9 +20 +20 1010.0 1009.6
00 15.11 В 4
{6}
н/о н/о +23.7 +20 +20 1011.0 1010.6
01 15.11 СВ 4
{6}
н/о н/о +23.8 +20 +20 1010.8 1010.4
02 15.11 СВ 4
{6}
н/о н/о +23.3 +19 +19 1010.2 1009.8
03 15.11 В 4
{6}
н/о н/о +23.3 +19 +19 1009.5 1009.1
05 15.11 СВ 4
{5}
н/о н/о +23.0 +19 +19 1008.1 1007.7
04 15.11 В 3
{6}
н/о н/о +23.0 +19 +19 1008.6 1008.2
06 15.11 В 3
{6}
н/о н/о +22.8 +19 +19 1007.8 1007.4
07 15.11 В 3
{6}
н/о н/о +22.9 +19 +19 1007.6 1007.2
08 15.11 СВ 4
{7}
н/о н/о +22.8 +19 +19 1007.1 1006.7
09 15.11 СВ 3
{7}
н/о н/о +23.4 +19 +19 1008.2 1007.8
11 15.11 В 3
{5}
н/о н/о +24.6 +21 +21 комфорт 1009.2 1008.8
10 15.11 В 3
{6}
н/о н/о +24.2 +20 +20 1008.9 1008.5
12 15.11 В 3
{5}
н/о н/о +25.5 +21 +21 комфорт 1009.4 1009.0
13 15.11 В 3
{4}
н/о н/о +26.6 +22 +22 комфорт 1009.3 1008.9
14 15.11 В 3
{3}
н/о н/о +26.8 +22 +22 комфорт 1009.1 1008.7
15 15.11 ЮВ 3
{3}
н/о н/о +27.0 +22 +22 комфорт 1008.8 1008.4
17 15.11 ЮВ 2
{4}
н/о н/о +26.8 +22 +22 комфорт 1008.3 1007.9
16 15.11 В 2
{4}
н/о н/о +27.0 +22 +22 комфорт 1008.4 1008.0
18 15.11 В 2
{3}
н/о н/о +27.5 +23 +23 комфорт 1009.0 1008.6
19 15.11 З 2
{4}
н/о н/о +26.4 +22 +22 комфорт 1009.4 1009.0
20 15.11 З 2
{5}
н/о н/о +24.8 +21 +21 комфорт 1009.9 1009.5
21 15.11 З 2
{4}
н/о н/о +23.7 +20 +20 1010.5 1010.1
23 15.11 З 2
{4}
н/о н/о +22.0 +19 +19 1012.5 1012.1
22 15.11 З 2
{4}
н/о н/о +22.9 +19 +19 1011.2 1010.8
00 16.11 З 2
{4}
н/о н/о +22.1 +19 +19 1013.2 1012.8
01 16.11 З 2
{4}
н/о н/о +22.4 +19 +19 1013.5 1013.1
02 16.11 З 1
{3}
н/о н/о +21.3 +19 +19 1013.4 1013.0
03 16.11 З 2
{4}
н/о н/о +22.2 +19 +19 1013.0 1012.6
05 16.11 З 2
{5}
н/о н/о +23.3 +19 +19 1012.7 1012.3
04 16.11 ЮЗ 2
{4}
н/о н/о +22.8 +19 +19 1012.7 1012.3
06 16.11 З 2
{4}
н/о н/о +23.1 +19 +19 1012.7 1012.3
07 16.11 З 2
{4}
н/о н/о +22.8 +19 +19 1013.1 1012.7
08 16.11 З 1
{4}
н/о н/о +22.2 +19 +19 1013.7 1013.3
09 16.11 З 1
{3}
н/о н/о +21.5 +19 +19 1014.7 1014.3 0.8
11 16.11 З 1
{2}
н/о н/о +22.8 +19 +19 1015.9 1015.5
10 16.11 З 1
{3}
н/о н/о +22.5 +19 +19 1015.4 1015.0 0.2
12 16.11 З 2
{3}
н/о н/о +23.8 +20 +20 1016.2 1015.8
13 16.11 З 2
{3}
н/о н/о +24.8 +21 +21 комфорт 1016.2 1015.8
14 16.11 З 2
{3}
н/о н/о +25.9 +22 +22 комфорт 1016.1 1015.7
15 16.11 З 2
{4}
н/о н/о +26.3 +22 +22 комфорт 1015.9 1015.5
17 16.11 З 2
{4}
н/о н/о +26.0 +22 +22 комфорт 1015.5 1015.1
16 16.11 З 2
{4}
н/о н/о +26.0 +22 +22 комфорт 1015.8 1015.4
18 16.11 З 2
{5}
н/о н/о +26.0 +22 +22 комфорт 1015.4 1015.0
19 16.11 З 2
{4}
н/о н/о +24.2 +20 +20 1015.5 1015.1
20 16.11 В 1
{4}
н/о н/о +23.6 +20 +20 1015.7 1015.3
21 16.11 С 1
{4}
н/о н/о +23.8 +20 +20 1016.0 1015.6
23 16.11 ЮВ 2
{5}
н/о н/о +23.4 +19 +19 1017.9 1017.5
22 16.11 ЮВ 3
{6}
н/о н/о +23.4 +19 +19 1016.9 1016.5
00 17.11 ЮЗ 1
{4}
н/о н/о +23.3 +19 +19 1018.4 1018.0
01 17.11 СВ 1
{3}
н/о н/о +23.2 +19 +19 1018.9 1018.5
02 17.11 З 1
{4}
н/о н/о +22.9 +19 +19 1018.7 1018.3
03 17.11 ЮЗ 1
{3}
н/о н/о +22.7 +19 +19 1018.1 1017.7
05 17.11 ЮЗ 1
{3}
н/о н/о +22.4 +19 +19 1017.5 1017.1
04 17.11 З 1
{3}
н/о н/о +23.1 +19 +19 1017.5 1017.1
06 17.11 Ю 1
{3}
н/о н/о +22.3 +19 +19 1017.5 1017.1
07 17.11 СВ 1
{3}
н/о н/о +22.5 +19 +19 1017.9 1017.5
08 17.11 ЮВ 2
{4}
н/о н/о +22.4 +19 +19 1018.3 1017.9
09 17.11 В 1
{4}
н/о н/о +22.9 +19 +19 1018.9 1018.5
11 17.11 В 1
{2}
н/о н/о +25.3 +21 +21 комфорт 1019.8 1019.4
10 17.11 В 1
{4}
н/о н/о +23.7 +20 +20 1019.6 1019.2
12 17.11 Ю 2
{3}
н/о н/о +24.3 +20 +20 1020.1 1019.7
13 17.11 Ю 2
{3}
н/о н/о +25.0 +21 +21 комфорт 1019.9 1019.5
14 17.11 Ю 1
{3}
н/о н/о +25.6 +21 +21 комфорт 1019.7 1019.3
15 17.11 З 1
{3}
н/о н/о +26.9 +22 +22 комфорт 1018.9 1018.5
17 17.11 ЮЗ 2
{4}
н/о н/о +25.4 +21 +21 комфорт 1017.9 1017.5
16 17.11 Ю 2
{3}
н/о н/о +25.3 +21 +21 комфорт 1018.6 1018.2
18 17.11 Ю 2
{4}
н/о н/о +25.4 +21 +21 комфорт 1017.0 1016.6
19 17.11 Ю 2
{4}
н/о н/о +25.2 +21 +21 комфорт 1016.7 1016.3
20 17.11 ЮВ 2
{4}
н/о н/о +24.9 +21 +21 комфорт 1016.8 1016.4
21 17.11 ЮВ 2
{3}
н/о н/о +24.0 +20 +20 1017.3 1016.9
23 17.11 В 2
{3}
н/о н/о +23.5 +20 +20 1018.4 1018.0
22 17.11 ЮВ 2
{3}
н/о н/о +23.6 +20 +20 1017.7 1017.3
00 18.11 В 2
{3}
н/о н/о +23.3 +19 +19 1018.7 1018.3
01 18.11 В 3
{3}
н/о н/о +23.4 +19 +19 1018.5 1018.1
02 18.11 В 3
{4}
н/о н/о +23.3 +19 +19 1018.3 1017.9
03 18.11 СВ 3
{4}
н/о н/о +23.2 +19 +19 1017.4 1017.0
05 18.11 СВ 3
{4}
н/о н/о +22.9 +19 +19 1015.8 1015.4
04 18.11 СВ 4
{5}
н/о н/о +23.0 +19 +19 1016.3 1015.9
06 18.11 СВ 4
{6}
н/о н/о +22.9 +19 +19 1015.2 1014.8
07 18.11 СВ 4
{7}
н/о н/о +23.0 +19 +19 1014.7 1014.3
08 18.11 СВ 4
{7}
н/о н/о +23.2 +19 +19 1014.9 1014.5
09 18.11 СВ 4
{9}
н/о н/о +23.7 +20 +20 1015.1 1014.7
11 18.11 СВ 6
{9}
н/о н/о +25.1 +21 +21 комфорт 1015.6 1015.2
10 18.11 СВ 5
{9}
н/о н/о +24.4 +20 +20 1015.3 1014.9
12 18.11 СВ 5
{9}
н/о н/о +26.0 +22 +22 комфорт 1015.4 1015.0
13 18.11 СВ 5
{8}
н/о н/о +26.6 +22 +22 комфорт 1015.0 1014.6
14 18.11 СВ 5
{7}
н/о н/о +26.9 +22 +22 комфорт 1014.6 1014.2
15 18.11 СВ 5
{7}
н/о н/о +27.0 +22 +22 комфорт 1013.5 1013.1
16 18.11 СВ 5
{8}
н/о н/о +26.7 +22 +22 комфорт 1012.6 1012.2
18 18.11 СВ 6
{9}
н/о н/о +25.6 +21 +21 комфорт 1011.1 1010.7
19 18.11 СВ 6
{9}
н/о н/о +25.9 +22 +22 комфорт 1010.5 1010.1
20 18.11 СВ 6
{11}
н/о н/о +26.1 +22 +22 комфорт 1010.0 1009.6
21 18.11 СВ 5
{10}
н/о н/о +25.0 +21 +21 комфорт 1010.8 1010.4
22 18.11 СВ 5
{10}
н/о н/о +24.7 +21 +21 комфорт 1011.1 1010.7
23 18.11 СВ 5
{10}
н/о н/о +25.2 +21 +21 комфорт 1011.7 1011.3
00 19.11 СВ 4
{8}
н/о н/о +24.7 +21 +21 комфорт 1012.1 1011.7
01 19.11 СВ 4
{8}
н/о н/о +24.4 +20 +20 1011.9 1011.5
02 19.11 СВ 4
{7}
н/о н/о +24.4 +20 +20 1011.4 1011.0
03 19.11 СВ 3
{7}
н/о н/о +24.1 +20 +20 1010.9 1010.5
04 19.11 СВ 3
{6}
н/о н/о +24.1 +20 +20 1010.1 1009.7
05 19.11 СВ 2
{6}
н/о н/о +24.0 +20 +20 1009.9 1009.5
06 19.11 В 3
{5}
н/о н/о +23.5 +20 +20 1009.5 1009.1
07 19.11 В 2
{5}
н/о н/о +23.7 +20 +20 1010.1 1009.7
08 19.11 З 1
{3}
н/о н/о +21.8 +19 +19 1010.9 1010.5
09 19.11 З 2
{4}
н/о н/о +21.9 +19 +19 1011.7 1011.3
10 19.11 З 2
{3}
н/о н/о +22.1 +19 +19 1012.5 1012.1
11 19.11 З 2
{4}
н/о н/о +23.9 +20 +20 1012.7 1012.3
12 19.11 З 2
{4}
н/о н/о +24.1 +20 +20 1013.2 1012.8
13 19.11 З 2
{5}
н/о н/о +24.8 +21 +21 комфорт 1013.3 1012.9
14 19.11 З 2
{4}
н/о н/о +24.1 +20 +20 1013.7 1013.3
15 19.11 З 1
{3}
н/о н/о +23.8 +20 +20 1013.5 1013.1
16 19.11 З 2
{4}
н/о н/о +22.5 +19 +19 1013.0 1012.6
17 19.11 З 3
{5}
н/о н/о +21.7 +19 +19 1012.8 1012.4
18 19.11 З 2
{4}
н/о н/о +21.3 +19 +19 1012.3 1011.9 0.2
19 19.11 З 2
{4}
н/о н/о +20.5 +20 +20 1012.7 1012.3 3
20 19.11 ЮВ 4
{7}
н/о н/о +21.5 +19 +19 1013.6 1013.2 17
21 19.11 В 4
{8}
н/о н/о +21.2 +19 +19 1014.6 1014.2 6
22 19.11 В 4
{9}
н/о н/о +21.0 +19 +19 1015.7 1015.3 2
23 19.11 В 3
{11}
н/о н/о +20.6 +19 +19 1016.8 1016.4 2
00 20.11 З 2
{6}
н/о н/о +20.4 +20 +20 1018.1 1017.7 4
01 20.11 СЗ 1
{5}
н/о н/о +20.4 +20 +20 1018.6 1018.2 1
02 20.11 СЗ 2
{6}
н/о н/о +20.7 +20 +20 1018.1 1017.7
03 20.11 З 2
{6}
н/о н/о +20.2 +20 +20 1017.9 1017.5
04 20.11 В 2
{4}
н/о н/о +19.2 +19 +19 1017.2 1016.8 0.6
05 20.11 СВ 2
{5}
н/о н/о +20.6 +20 +20 1016.8 1016.4
06 20.11 СВ 2
{4}
н/о н/о +20.8 +20 +20 1016.6 1016.2
07 20.11 СВ 2
{5}
н/о н/о +19.9 +19 +19 1017.0 1016.6
08 20.11 В 2
{7}
н/о н/о +18.6 +19 +19 1018.0 1017.6 2
09 20.11 СЗ 1
{3}
н/о н/о +19.4 +20 +20 1018.8 1018.4 2
10 20.11 ЮВ 2
{4}
н/о н/о +20.6 +20 +20 1019.7 1019.3 2
11 20.11 ЮВ 2
{5}
н/о н/о +21.3 +19 +19 1020.4 1020.0 0.2
12 20.11 ЮВ 2
{7}
н/о н/о +20.7 +20 +20 1020.7 1020.3
13 20.11 Ю 1
{3}
н/о н/о +22.6 +19 +19 1020.5 1020.1
14 20.11 В 1
{3}
н/о н/о +23.3 +19 +19 1020.2 1019.8
15 20.11 З 1
{3}
н/о н/о +22.0 +19 +19 1020.0 1019.6
16 20.11 З 1
{2}
н/о н/о +21.3 +19 +19 1019.6 1019.2
17 20.11 ЮЗ 1
{2}
н/о н/о +21.7 +19 +19 1018.9 1018.5
18 20.11 ЮЗ 1
{2}
н/о н/о +20.9 +20 +20 1018.8 1018.4
19 20.11 ЮЗ 1
{3}
н/о н/о +20.3 +20 +20 1018.7 1018.3
20 20.11 ЮЗ 1
{2}
н/о н/о +20.2 +20 +20 1018.8 1018.4

 

Местоположение метеостанции Arraial Do Cabo (Бразилия): широта -22.98 долгота -42.02 высота над уровнем моря 6 м.

В архиве по умолчанию представлена погода в Arraial Do Cabo за последнюю неделю. Архивные данные за месяц целиком и за предыдущие месяцы, начиная с января 2011 года, Вы можете получить, выбрав интересующий диапазон дат из раскрывающегося списка и нажав кнопку "Ввод!".


*Определитесь, кто Вы:
робот инопланетянин человек

Внимание! Время в таблицах - всемирное. Для получения местного времени необходимо прибавить поправку, которая в Arraial Do Cabo равна -3 ч.

Смотрите также архив погоды в соседних городах и на ближайших метеорологических станциях:

Погода в Macae (Бразилия) (70 км)
Погода в Nova Friburgo (Бразилия) (99 км)
Погода в Cordeiro (Бразилия) (111 км)
Погода в Teresopolis (Бразилия) (116 км)
Погода в Ilha Rasa (Бразилия) (116 км)
Погода в Rio De Janeiro Airport (Бразилия) (117 км)
Погода в Rio De Janeiro (Бразилия) (118 км)
Погода в Rio de Janeiro - Forte de Copacabana (Бразилия) (120 км)
Погода в Galeao (Бразилия) (127 км)
Погода в Xerem (Бразилия) (136 км)

Пояснения к столбцам:

Ветер - указаны скорость ветра в м/с - средняя за 10 мин, порывы в срок и между сроками (в фигурных скобках) и направление, откуда дует ветер: С - северный, СВ - северо-восточный, В - восточный, ЮВ - юго-восточный, Ю - южный, ЮЗ - юго-западный, З - западный, СЗ - северо-западный.
Видимость - горизонтальная дальность видимости в метрах или километрах. При видимости от 1 до 10 км при отсутствии осадков обычно наблюдается дымка, при ухудшении видимости до 1 км и менее - туман. В сухую погоду видимость может ухудшаться дымом, пылью или мглою.
Явления - указаны атмосферные явления, наблюдавшиеся в срок или в последний час перед сроком; фигурными скобками обозначены явления, наблюдавшиеся между сроками (за 1-3 часа до срока); квадратными скобками обозначены град или гололедные отложения с указанием их диаметра в мм.
Облачность - указаны через наклонную черту общая и нижняя облачность в баллах и высота нижней границы облаков в метрах; квадратными скобками обозначены формы облаков: Ci - перистые, Cs - перисто-слоистые, Cc - перисто-кучевые, Ac - высококучевые, As - высокослоистые, Sc - слоисто-кучевые, Ns - слоисто-дождевые, Cu - кучевые, Cb - кучево-дождевые. Подробнее классификацию облаков см. в Атласе облаков (PDF).
T - Температура воздуха - температура, измеренная на высоте 2 м над землей.
Td - Температура точки росы - температура, при понижении до которой содержащийся в воздухе водяной пар достигнет насыщения.
f - Относительная влажность воздуха - влажноcть воздуха, измеренная на высоте 2 м над землей.
Te - Эффективная температура - температура, которую ощущает одетый по сезону человек в тени. Характеристика душности погоды. При расчете учитывается влияние влажности воздуха и скорости ветра на теплоощущения человека.
Tes - Эффективная температура на солнце - температура, которую ощущает человек, с поправкой на солнечный нагрев. Характеристика знойности погоды. Зависит от высоты солнца над горизонтом, облачности и скорости ветра. Ночью, в пасмурную погоду, а также при ветре 12 м/с и более поправка равна нулю.
P - Атмосферное давление - приведенное к уровню моря атмосферное давление.
Po - Атмосферное давление - измеренное на уровне метеостанции атмосферное давление.
Tmin - Минимальная температура - минимум температуры воздуха на высоте 2 м над землей.
Tmax - Максимальная температура - максимум температуры воздуха на высоте 2 м над землей.
R - Количество осадков - Количество выпавших осадков за период времени, мм. При наведении курсора мыши на число - период времени, за который выпало указанное количество осадков.
R24 - Количество осадков - Количество выпавших осадков за 24 часа, мм.
S - Снежный покров - Высота снежного покрова, см. При наведении курсора мыши на число - состояние снежного покрова и степень покрытия местности в баллах.